Tracking 19709 objects as of 18-Jun-2019
HD Live streaming from Space Station
objects crossing your sky now

FLOCK 3K 4

Track FLOCK 3K 4 now!
10-day predictions
FLOCK 3K 4 is classified as:


NORAD ID: 43893
Int'l Code: 2018-111T
Perigee: 483.4 km
Apogee: 517.1 km
Inclination: 97.3 °
Period: 94.5 minutes
Semi major axis: 6871 km
RCS: Unknown
Launch date: December 27, 2018
Source: United States (US)
Launch site: VOSTOCHNY COSMODROME (VOSTO)
aabbcc
Your satellite tracking list
Your tracking list is empty




NASA's NSSDC Master Catalog

Two Line Element Set (TLE):
1 43893U 18111T   19168.73111339  .00002204  00000-0  92576-4 0  9993
2 43893  97.2910  73.9085 0024477   4.7895 355.3572 15.24230759 26293
Source of the keplerian elements: AFSPC